Location: New Town
(33.2710°N, 90.7534°W)
Time: 02:59:50
(UTC+00:00)

A-11 Canister half - All Passes

Search period start: 12 May 2021 00:00
Search period end: 22 May 2021 00:00
Orbit: 1514 x 1685 km, 47.2° (Epoch: 11 May)

Date Brightness Start Highest point End Pass type
(mag) Time Alt. Az. Time Alt. Az. Time Alt. Az.
12 May - 00:14:23 10° WNW 00:22:37 34° N 00:31:00 10° ENE daylight
12 May - 02:20:07 10° NW 02:29:17 56° NNE 02:38:42 10° ESE visible
12 May - 04:25:09 10° WNW 04:34:15 54° SW 04:43:40 10° SSE visible
12 May - 06:36:15 10° WSW 06:37:52 10° WSW 06:39:29 10° SW visible
12 May - 17:38:57 10° SSE 17:43:47 15° ESE 17:48:34 10° E daylight
12 May - 19:38:15 10° SW 19:47:28 68° SE 19:56:36 10° ENE daylight
12 May - 21:43:50 10° W 21:52:42 48° NNW 22:01:37 10° NE daylight
12 May - 23:51:22 10° WNW 23:59:35 34° N 00:07:55 10° ENE daylight
13 May - 01:57:12 10° NW 02:06:18 54° NNE 02:15:39 10° ESE visible
13 May - 04:02:12 10° WNW 04:11:22 58° SW 04:20:51 10° SSE visible
13 May - 06:11:51 10° WSW 06:15:02 12° WSW 06:18:15 10° SW visible
13 May - 17:16:51 10° SSE 17:20:58 14° ESE 17:25:02 10° E daylight
13 May - 19:15:25 10° SW 19:24:36 63° SE 19:33:40 10° ENE daylight
13 May - 21:20:48 10° W 21:29:44 50° NNW 21:38:40 10° NE daylight
13 May - 23:28:20 10° WNW 23:36:32 34° N 23:44:51 10° ENE daylight
14 May - 01:34:17 10° NW 01:43:19 52° NNE 01:52:35 10° E visible
14 May - 03:39:15 10° WNW 03:48:28 62° SW 03:58:00 10° SSE visible
14 May - 05:48:03 10° W 05:52:11 13° WSW 05:56:23 10° SSW visible
14 May - 16:54:59 10° SE 16:58:09 12° ESE 17:01:17 10° ESE daylight
14 May - 18:52:35 10° SSW 19:01:43 59° SE 19:10:43 10° ENE daylight
14 May - 20:57:46 10° W 21:06:45 52° NNW 21:15:45 10° NE daylight
14 May - 23:05:18 10° WNW 23:13:30 34° N 23:21:48 10° ENE daylight
15 May - 01:11:23 10° NW 01:20:20 49° NNE 01:29:31 10° E visible
15 May - 03:16:19 10° WNW 03:25:34 66° SW 03:35:08 10° SE visible
15 May - 05:24:29 10° W 05:29:20 15° WSW 05:34:17 10° SSW visible
15 May - 16:33:40 10° SE 16:35:19 11° ESE 16:36:57 10° ESE daylight
15 May - 18:29:47 10° SSW 18:38:51 55° SE 18:47:46 10° ENE daylight
15 May - 20:34:44 10° WSW 20:43:47 54° NNW 20:52:49 10° NE daylight
15 May - 22:42:16 10° WNW 22:50:27 34° N 22:58:44 10° ENE daylight
16 May - 00:48:28 10° NW 00:57:21 48° NNE 01:06:26 10° E daylight
16 May - 02:53:24 10° WNW 03:02:40 70° SW 03:12:16 10° SE visible
16 May - 05:01:03 10° W 05:06:30 17° SW 05:12:03 10° SSW visible
16 May - 18:06:59 10° SSW 18:15:59 52° SE 18:24:48 10° ENE daylight
16 May - 20:11:42 10° WSW 20:20:49 57° NNW 20:29:54 10° NE daylight
16 May - 22:19:13 10° WNW 22:27:25 34° N 22:35:42 10° ENE daylight
17 May - 00:25:32 10° NW 00:34:22 46° NNE 00:43:21 10° E daylight
17 May - 02:30:28 10° NW 02:39:47 74° SW 02:49:22 10° SE visible
17 May - 04:37:43 10° W 04:43:40 18° SW 04:49:42 10° SSW visible
17 May - 17:44:12 10° SSW 17:53:07 48° SE 18:01:50 10° ENE daylight
17 May - 19:48:41 10° WSW 19:57:52 60° NNW 20:06:59 10° NE daylight
17 May - 21:56:09 10° WNW 22:04:24 34° N 22:12:40 10° ENE daylight
18 May - 00:02:36 10° NW 00:11:22 44° NNE 00:20:16 10° E daylight
18 May - 02:07:33 10° NW 02:16:52 78° SW 02:26:28 10° SE visible
18 May - 04:14:28 10° W 04:20:48 20° SW 04:27:18 10° SSW visible
18 May - 17:21:27 10° SSW 17:30:15 45° SE 17:38:52 10° ENE daylight
18 May - 19:25:40 10° WSW 19:34:55 62° NNW 19:44:04 10° NE daylight
18 May - 21:33:05 10° WNW 21:41:21 35° N 21:49:38 10° ENE daylight
18 May - 23:39:40 10° NW 23:48:22 43° NNE 23:57:11 10° E daylight
19 May - 01:44:38 10° NW 01:53:58 83° SW 02:03:34 10° SE visible
19 May - 03:51:15 10° W 03:57:57 22° SW 04:04:50 10° S visible
19 May - 16:58:41 10° SSW 17:07:24 42° SE 17:15:53 10° ENE daylight
19 May - 19:02:39 10° WSW 19:11:58 66° NNW 19:21:09 10° NE daylight
19 May - 21:10:01 10° WNW 21:18:19 35° N 21:26:38 10° NE daylight
19 May - 23:16:44 10° NW 23:25:21 41° NNE 23:34:05 10° E daylight
20 May - 01:21:44 10° NW 01:31:03 87° SW 01:40:38 10° SE visible
20 May - 03:28:05 10° WNW 03:35:07 24° SW 03:42:19 10° S visible
20 May - 16:35:58 10° SSW 16:44:32 39° SE 16:52:52 10° ENE daylight
20 May - 18:39:39 10° WSW 18:49:01 69° NNW 18:58:16 10° NE daylight
20 May - 20:46:56 10° WNW 20:55:17 36° N 21:03:37 10° NE daylight
20 May - 22:53:47 10° NW 23:02:21 40° NNE 23:11:00 10° E daylight
21 May - 00:58:49 10° NW 01:08:08 88° NE 01:17:42 10° SE daylight
21 May - 03:04:57 10° WNW 03:12:16 26° SW 03:19:46 10° S visible
21 May - 16:13:16 10° SSW 16:21:41 36° SE 16:29:51 10° ENE daylight
21 May - 18:16:39 10° WSW 18:26:05 73° NW 18:35:21 10° NE daylight
21 May - 20:23:51 10° WNW 20:32:16 36° N 20:40:39 10° NE daylight
21 May - 22:30:49 10° NW 22:39:20 39° NNE 22:47:54 10° E daylight
